Regional Weather Roundup
Issued by NWS

Home | Current Version | Previous Version | Graphics & Text | Print | Product List | Glossary On
Versions: 1 2 3 4 5 6 7 8 9 10 11 12 13 14 15 16 17 18 19 20 21 22 23 24 25 26 27 28 29 30 31 32 33 34 35 36 37 38 39 40 41 42 43 44 45 46 47 48 49 50
000
ASUS45 KABQ 122301
RWRNM
NEW MEXICO REGIONAL WEATHER ROUNDUP
NATIONAL WEATHER SERVICE ALBUQUERQUE NM
400 PM MST FRI FEB 12 2016

NOTE: "FAIR" MEANS FEW OR NO CLOUDS BELOW 12,000 FEET AGL WITH NO
       SIGNIFICANT WEATHER OR OBSTRUCTIONS TO VISION.

      THIS PRODUCT IS RELEASED AS TWO VERSIONS.  ONE VERSION NEAR
      THE TOP OF THE HOUR CONTAINING PRELIMINARY DATA FROM ALBUQUERQUE
      AND OTHER STATIONS.  A FINAL VERSION WITH ADDITIONAL DATA IS
      ISSUED ABOUT 10 MINUTES AFTER THE HOUR.

NMZ501-503-504-510>518-130000-
NORTHWEST PLATEAU/NORTHCENTRAL MOUNTAINS

CITY           SKY/WX    TMP DP  RH WIND       PRES   REMARKS
FARMINGTON     SUNNY     61  19  19 CALM      30.31F
SANTA FE       SUNNY     64  18  17 SW12      30.31S
TAOS           SUNNY     55  25  30 N7        30.35S
ANGEL FIRE     FAIR      48  25  41 CALM      30.38S

$$
NMZ402-403-502-505>509-130000-
WESTCENTRAL MOUNTAINS/SOUTHWEST MOUNTAINS

CITY           SKY/WX    TMP DP  RH WIND       PRES   REMARKS
GALLUP         SUNNY     66   7  10 VRB6      30.33S
GRANTS         SUNNY     68   8   9 NE5       30.33F
SILVER CITY      N/A     72   9   8 SW7       30.30S

$$
NMZ407-409-411-412-130000-
SOUTHERN DESERTS

CITY           SKY/WX    TMP DP  RH WIND       PRES   REMARKS
DEMING         SUNNY     74  11   9 E6        30.23S
HOLLOMAN AFB   SUNNY     73   2   6 VRB3      30.21F
ALAMOGORDO     SUNNY     73  10   9 SW6       30.23S
T OR C         SUNNY     72   2   6 SE6       30.24F

$$
NMZ519>523-130000-
CENTRAL VALLEYS/CENTRAL HIGHLANDS

CITY           SKY/WX    TMP DP  RH WIND       PRES   REMARKS
ALBUQUERQUE    SUNNY     66  19  16 CALM      30.29F
DOUBLE EAGLE   SUNNY     66  21  18 E7        30.31S
MORIARTY ARPT  FAIR      66  13  13 CALM      30.32S
CLINES CORNERS SUNNY     63  19  18 W7        30.33S
BELEN          FAIR      68  12  11 CALM      30.28F
SOCORRO        NOT AVBL

$$
NMZ524>526-539-540-130000-
SOUTHCENTRAL MOUNTAINS

CITY           SKY/WX    TMP DP  RH WIND       PRES   REMARKS
RUIDOSO        SUNNY     63  16  16 SE12      30.36R

$$
NMZ527>531-130000-
NORTHEAST HIGHLANDS/NORTHEAST PLAINS

CITY           SKY/WX    TMP DP  RH WIND       PRES   REMARKS
LAS VEGAS      SUNNY     58  22  24 S13       30.33S
RATON          SUNNY     60  19  20 S9        30.29F
CLAYTON        SUNNY     61  24  24 S15       30.28S

$$
NMZ532>537-130000-
EASTCENTRAL PLAINS

CITY           SKY/WX    TMP DP  RH WIND       PRES   REMARKS
TUCUMCARI      SUNNY     69  22  16 E10       30.25F
CANNON AFB     SUNNY     69  18  14 SE12      30.26R
CLOVIS AIRPORT SUNNY     66  21  18 SE14      30.28R

$$
NMZ028-029-538-130000-
SOUTHEAST PLAINS

CITY           SKY/WX    TMP DP  RH WIND       PRES   REMARKS
ROSWELL        SUNNY     70  21  15 E3        30.22F
ARTESIA        SUNNY     68  27  21 NE6       30.23S
CARLSBAD       SUNNY     71  24  17 N6        30.21F
HOBBS          SUNNY     72  18  13 SE10G16   30.24S


$$



USA.gov is the U.S. government's official web portal to all federal, state and local government web resources and services.